• In Hungary
  • List of Countries
  • For 7 days
  • Water Temperature
  • Satellite Maps
  • Weather Map
  • News
  • Weather Widgets
  • user-avatar
    Login

    Hourly Weather Szelewo

    Today, 22 September, Saturday

    Time Temperature Precipitation Wind Pressure Humidity
    00:00 +12°C° 0.4 mm 9 mps 749 mmHg 79%
    01:00 +11°C° 0 mm 9 mps 749 mmHg 75%
    02:00 +11°C° 0.1 mm 9 mps 750 mmHg 75%
    03:00 +10°C° 0.1 mm 9 mps 750 mmHg 75%
    04:00 +10°C° 0.1 mm 9 mps 750 mmHg 75%
    05:00 +10°C° 0.2 mm 9 mps 751 mmHg 75%
    06:00 +10°C° 0.2 mm 9 mps 751 mmHg 74%
    07:00 +10°C° 0 mm 9 mps 751 mmHg 73%
    08:00 +11°C° 0.3 mm 9 mps 752 mmHg 71%
    09:00 +11°C° 0.3 mm 9 mps 752 mmHg 68%
    10:00 +12°C° 0.3 mm 9 mps 753 mmHg 65%
    11:00 +13°C° 0.4 mm 9 mps 753 mmHg 64%
    12:00 +13°C° 0.4 mm 9 mps 753 mmHg 62%
    13:00 +13°C° 0.4 mm 9 mps 753 mmHg 61%
    14:00 +15°C° 0.2 mm 9 mps 753 mmHg 59%
    15:00 +15°C° 0.2 mm 9 mps 753 mmHg 58%
    16:00 +15°C° 0.2 mm 9 mps 753 mmHg 56%
    17:00 +13°C° 0.3 mm 8 mps 752 mmHg 61%
    18:00 +12°C° 0.3 mm 8 mps 752 mmHg 66%
    19:00 +11°C° 0.3 mm 8 mps 752 mmHg 71%
    20:00 +11°C° 0.3 mm 8 mps 752 mmHg 72%
    21:00 +11°C° 0.3 mm 8 mps 752 mmHg 73%
    22:00 +10°C° 0.3 mm 8 mps 752 mmHg 74%
    23:00 +10°C° 0.3 mm 8 mps 752 mmHg 75%

    Tomorrow, 23 September, Sunday

    Time Temperature Precipitation Wind Pressure Humidity
    00:00 +10°C° 0.3 mm 8 mps 752 mmHg 76%
    01:00 +9°C° 0.3 mm 8 mps 752 mmHg 76%
    02:00 +9°C° 0.3 mm 8 mps 752 mmHg 77%
    03:00 +9°C° 0.3 mm 8 mps 752 mmHg 77%
    04:00 +8°C° 0.3 mm 9 mps 752 mmHg 78%
    05:00 +9°C° 0.3 mm 8 mps 752 mmHg 78%
    06:00 +9°C° 0.3 mm 8 mps 752 mmHg 78%
    07:00 +9°C° 0.3 mm 8 mps 752 mmHg 78%
    08:00 +10°C° 0.3 mm 8 mps 752 mmHg 74%
    09:00 +11°C° 0.3 mm 8 mps 752 mmHg 71%
    10:00 +12°C° 0.3 mm 8 mps 752 mmHg 67%
    11:00 +12°C° 0.2 mm 8 mps 752 mmHg 65%
    12:00 +13°C° 0.2 mm 8 mps 751 mmHg 63%
    13:00 +13°C° 0.2 mm 8 mps 751 mmHg 61%
    14:00 +14°C° 0.1 mm 7 mps 751 mmHg 62%
    15:00 +14°C° 0.1 mm 6 mps 750 mmHg 63%
    16:00 +13°C° 0.1 mm 6 mps 750 mmHg 65%
    17:00 +13°C° 0.1 mm 5 mps 750 mmHg 68%
    18:00 +12°C° 0.1 mm 5 mps 750 mmHg 72%
    19:00 +11°C° 0.1 mm 4 mps 750 mmHg 75%
    20:00 +11°C° 0.1 mm 4 mps 749 mmHg 76%
    21:00 +11°C° 0.1 mm 4 mps 749 mmHg 78%
    22:00 +10°C° 0.1 mm 4 mps 749 mmHg 79%
    23:00 +10°C° 0.3 mm 4 mps 749 mmHg 80%

    Day after tomorrow, 24 September, Monday

    Time Temperature Precipitation Wind Pressure Humidity
    00:00 +9°C° 0.3 mm 5 mps 749 mmHg 81%
    01:00 +9°C° 0.3 mm 5 mps 749 mmHg 81%
    02:00 +9°C° 0.3 mm 5 mps 749 mmHg 80%
    03:00 +9°C° 0.3 mm 6 mps 749 mmHg 79%
    04:00 +9°C° 0.3 mm 6 mps 749 mmHg 78%
    05:00 +9°C° 0.2 mm 6 mps 750 mmHg 77%
    06:00 +9°C° 0.2 mm 7 mps 750 mmHg 75%
    07:00 +9°C° 0.2 mm 7 mps 751 mmHg 74%
    08:00 +10°C° 0.4 mm 7 mps 751 mmHg 71%
    09:00 +10°C° 0.4 mm 8 mps 752 mmHg 68%
    10:00 +11°C° 0.4 mm 8 mps 753 mmHg 65%
    11:00 +11°C° 0.5 mm 9 mps 754 mmHg 65%
    12:00 +11°C° 0.5 mm 9 mps 754 mmHg 65%
    13:00 +10°C° 0.5 mm 9 mps 755 mmHg 65%
    14:00 +10°C° 0.1 mm 8 mps 756 mmHg 62%
    15:00 +10°C° 0.1 mm 8 mps 757 mmHg 59%
    16:00 +10°C° 0.1 mm 7 mps 758 mmHg 56%
    17:00 +9°C° 0 mm 7 mps 758 mmHg 57%
    18:00 +9°C° 0 mm 6 mps 759 mmHg 58%
    19:00 +8°C° 0 mm 6 mps 759 mmHg 58%
    20:00 +8°C° 0.1 mm 6 mps 760 mmHg 58%
    21:00 +8°C° 0.1 mm 7 mps 761 mmHg 57%
    22:00 +8°C° 0.1 mm 7 mps 761 mmHg 56%
    23:00 +6°C° 0.1 mm 7 mps 762 mmHg 57%

    25 September, Tuesday

    Time Temperature Precipitation Wind Pressure Humidity
    00:00 +6°C° 0.1 mm 7 mps 762 mmHg 58%
    01:00 +6°C° 0.1 mm 7 mps 763 mmHg 58%
    02:00 +6°C° 0.1 mm 7 mps 763 mmHg 60%
    03:00 +6°C° 0.1 mm 7 mps 764 mmHg 61%
    04:00 +5°C° 0.1 mm 8 mps 765 mmHg 62%
    05:00 +6°C° 0 mm 8 mps 765 mmHg 61%
    06:00 +6°C° 0 mm 8 mps 766 mmHg 60%
    07:00 +7°C° 0 mm 8 mps 766 mmHg 58%
    08:00 +9°C° 0 mm 8 mps 767 mmHg 52%
    09:00 +10°C° 0 mm 8 mps 768 mmHg 46%
    10:00 +12°C° 0 mm 8 mps 768 mmHg 39%
    11:00 +12°C° 0 mm 8 mps 768 mmHg 41%
    12:00 +12°C° 0 mm 8 mps 768 mmHg 43%
    13:00 +12°C° 0 mm 7 mps 769 mmHg 44%
    14:00 +12°C° 0 mm 7 mps 769 mmHg 47%
    15:00 +12°C° 0 mm 8 mps 768 mmHg 49%
    16:00 +12°C° 0 mm 8 mps 768 mmHg 52%
    17:00 +11°C° 0 mm 7 mps 768 mmHg 57%
    18:00 +10°C° 0 mm 7 mps 768 mmHg 63%
    19:00 +9°C° 0 mm 6 mps 768 mmHg 68%
    20:00 +8°C° 0 mm 6 mps 768 mmHg 71%
    21:00 +8°C° 0 mm 6 mps 769 mmHg 74%
    22:00 +8°C° 0 mm 6 mps 769 mmHg 77%
    23:00 +8°C° 0 mm 7 mps 768 mmHg 77%

    26 September, Wednesday

    Time Temperature Precipitation Wind Pressure Humidity
    00:00 +8°C° 0 mm 7 mps 768 mmHg 77%
    01:00 +8°C° 0 mm 7 mps 768 mmHg 78%
    02:00 +7°C° 0.1 mm 8 mps 768 mmHg 76%
    03:00 +7°C° 0.1 mm 8 mps 767 mmHg 74%
    04:00 +6°C° 0.1 mm 8 mps 767 mmHg 73%
    05:00 +7°C° 0 mm 9 mps 767 mmHg 69%
    06:00 +7°C° 0 mm 9 mps 766 mmHg 65%
    07:00 +7°C° 0 mm 9 mps 766 mmHg 61%
    08:00 +8°C° 0.1 mm 10 mps 765 mmHg 58%
    09:00 +9°C° 0.1 mm 10 mps 765 mmHg 55%
    10:00 +11°C° 0.1 mm 11 mps 765 mmHg 51%
    11:00 +11°C° 0.2 mm 10 mps 764 mmHg 51%
    12:00 +11°C° 0.2 mm 10 mps 763 mmHg 51%
    13:00 +11°C° 0.2 mm 10 mps 763 mmHg 51%
    14:00 +11°C° 0 mm 10 mps 762 mmHg 49%
    15:00 +12°C° 0 mm 10 mps 761 mmHg 47%
    16:00 +13°C° 0 mm 11 mps 760 mmHg 45%
    17:00 +13°C° 0 mm 11 mps 760 mmHg 46%
    18:00 +13°C° 0 mm 11 mps 760 mmHg 47%
    19:00 +13°C° 0 mm 11 mps 760 mmHg 48%
    20:00 +13°C° 0 mm 11 mps 759 mmHg 50%
    21:00 +13°C° 0 mm 11 mps 759 mmHg 52%
    22:00 +13°C° 0 mm 11 mps 759 mmHg 55%
    23:00 +13°C° 0.1 mm 11 mps 758 mmHg 58%

    27 September, Thursday

    Time Temperature Precipitation Wind Pressure Humidity
    00:00 +13°C° 0.1 mm 11 mps 758 mmHg 61%
    01:00 +13°C° 0.1 mm 11 mps 757 mmHg 64%
    02:00 +13°C° 0.1 mm 11 mps 757 mmHg 68%
    03:00 +13°C° 0.1 mm 11 mps 756 mmHg 72%
    04:00 +13°C° 0.1 mm 11 mps 756 mmHg 76%
    05:00 +13°C° 0.3 mm 11 mps 756 mmHg 78%
    06:00 +13°C° 0.3 mm 11 mps 756 mmHg 80%
    07:00 +14°C° 0.3 mm 12 mps 755 mmHg 82%
    08:00 +14°C° 0.9 mm 11 mps 755 mmHg 83%
    09:00 +14°C° 0.9 mm 10 mps 756 mmHg 84%
    10:00 +14°C° 0.9 mm 10 mps 756 mmHg 86%
    11:00 +15°C° 0.3 mm 9 mps 756 mmHg 83%
    12:00 +15°C° 0.3 mm 9 mps 756 mmHg 81%
    13:00 +13°C° 0.3 mm 9 mps 756 mmHg 78%
    14:00 +13°C° 0 mm 9 mps 756 mmHg 75%
    15:00 +13°C° 0 mm 9 mps 756 mmHg 72%
    16:00 +13°C° 0 mm 9 mps 756 mmHg 69%
    17:00 +12°C° 0 mm 9 mps 756 mmHg 69%
    18:00 +12°C° 0 mm 9 mps 756 mmHg 70%
    19:00 +11°C° 0 mm 8 mps 756 mmHg 71%
    20:00 +11°C° 0.1 mm 8 mps 756 mmHg 70%
    21:00 +11°C° 0.1 mm 8 mps 756 mmHg 70%
    22:00 +10°C° 0.1 mm 8 mps 756 mmHg 69%
    23:00 +10°C° 0.1 mm 8 mps 756 mmHg 70%
    Show more